Theta_e
335 333 334 329 317 319 310 312 321 320 321 332 336 330 327 328 328 321 338 341 345 347 353 356 362 361 359 359 359 359 360 360 359 359 359 359 359 359 357 355 353 352 348 347 346 345 344 343 343
325 323 325 322 313 308 310 316 319 323 329 332 334 330 324 323 337 334 333 342 346 348 352 353 361 360 359 358 359 360 359 359 359 359 359 359 358 355 354 352 351 347 344 341 339 338 338 338 338
329 326 318 315 313 305 307 317 321 326 330 328 327 330 327 327 338 336 341 343 345 350 355 357 362 361 359 358 359 359 359 359 359 358 358 356 354 352 350 349 347 341 340 339 338 337 336 336 336
320 322 320 310 309 314 317 321 323 324 327 331 329 323 336 340 341 340 341 343 345 350 352 359 361 359 359 358 357 360 360 358 356 356 353 352 350 349 348 346 345 340 339 338 337 336 336 335 334
321 317 309 309 312 315 321 323 324 323 325 327 322 324 331 340 346 342 342 343 342 346 349 354 359 359 358 358 359 358 357 355 353 354 350 348 348 347 346 344 340 338 337 336 335 335 335 334 334
311 314 306 307 309 316 319 324 324 324 324 326 322 329 332 344 340 341 342 341 345 344 345 350 358 360 360 359 357 356 354 352 351 350 349 347 346 345 342 340 338 337 335 334 333 332 332 333 334
309 308 307 310 311 314 318 325 321 322 322 322 328 319 328 338 340 341 341 343 346 343 345 348 352 357 358 356 354 352 351 350 349 349 347 347 345 344 342 339 337 335 333 330 329 330 332 336 337
312 311 309 312 311 311 317 321 324 323 320 326 329 317 319 337 341 341 341 343 344 346 345 346 351 350 348 345 351 349 348 347 346 346 346 346 346 345 343 340 337 332 332 329 328 330 333 337 339
317 309 308 310 310 312 318 316 324 327 323 324 331 324 331 341 341 340 338 339 343 345 347 347 346 346 343 340 341 345 342 344 346 344 345 344 339 339 338 337 336 333 332 332 332 334 337 339 336
313 310 312 316 314 313 315 316 321 319 320 323 328 332 333 340 338 336 336 335 338 343 345 344 345 341 340 335 333 333 332 334 336 338 341 339 340 338 333 338 339 336 337 338 339 342 340 332 323
314 311 318 315 315 315 314 314 318 317 315 322 320 322 338 336 337 336 336 335 336 344 344 341 343 340 335 331 334 332 335 341 340 341 339 342 339 340 332 335 331 335 336 326 327 326 325 325 323
311 316 316 315 315 314 313 316 316 317 318 326 326 334 334 335 335 336 335 334 335 343 340 340 339 342 339 335 336 336 336 339 337 339 339 338 333 335 334 332 333 331 330 328 325 323 327 324 324
312 316 316 316 315 314 316 314 315 316 320 326 328 334 329 325 326 338 337 337 336 338 339 339 341 343 345 343 343 340 336 336 339 335 334 336 333 335 334 333 334 333 329 326 325 324 324 322 320
316 316 315 314 315 316 313 314 315 318 323 322 320 328 332 328 327 332 329 330 330 332 337 340 342 346 345 342 338 336 334 337 336 334 334 334 334 337 334 331 331 330 328 327 325 324 322 319 318
315 311 313 314 314 313 314 310 311 319 319 317 318 319 327 330 332 327 326 326 330 329 333 336 338 341 340 336 333 331 330 330 329 328 330 331 331 330 332 328 328 330 330 328 327 323 320 319 318
309 311 306 313 313 313 312 305 316 319 318 317 318 327 336 333 334 330 326 326 330 329 330 333 335 334 334 334 329 328 330 332 331 326 326 327 326 326 327 325 327 329 327 325 322 321 318 316 315
309 303 306 308 314 312 311 307 315 319 318 317 319 335 335 330 330 331 328 329 329 331 330 329 328 327 328 330 332 333 330 327 327 326 325 326 327 328 328 326 326 327 323 323 320 318 317 314 312
304 304 306 306 311 312 310 308 313 317 318 317 323 334 330 326 327 330 331 332 330 329 328 326 327 331 333 334 331 328 328 328 328 329 327 328 329 329 325 324 326 325 321 320 318 317 316 314 312
308 306 305 309 312 310 309 309 312 316 318 318 322 330 326 325 329 329 330 330 331 328 327 330 330 325 327 325 323 323 323 324 326 330 330 332 330 328 327 325 322 322 318 317 317 315 313 311 313
309 307 307 310 312 310 309 308 312 316 320 321 329 328 325 325 325 325 326 326 327 327 329 328 327 325 324 324 325 325 325 327 330 332 330 330 329 328 325 324 321 321 317 317 317 315 311 312 313
309 307 307 305 309 310 308 306 309 318 321 321 325 326 324 323 322 323 324 324 325 325 326 326 324 324 325 326 328 328 330 329 329 329 326 325 326 327 325 323 321 320 319 314 316 315 314 310 312
305 311 309 307 306 300 309 298 309 314 310 312 321 320 321 322 324 322 319 318 320 320 320 319 319 318 319 320 321 319 320 317 321 323 329 325 326 325 325 321 320 318 317 316 316 315 314 313 308
307 311 309 307 305 304 303 302 305 315 309 316 318 317 316 315 314 314 314 313 315 316 316 317 317 316 317 320 319 318 318 319 323 323 324 324 324 325 321 320 319 318 318 317 316 316 315 313 310
313 308 307 307 305 297 303 303 304 310 314 314 314 311 311 310 308 309 310 311 312 316 317 316 316 317 319 319 320 322 321 320 318 317 317 316 319 321 319 318 320 320 318 317 317 317 316 314 313
309 305 297 296 297 294 303 302 308 312 313 314 311 310 308 307 307 308 309 310 312 312 315 316 314 312 314 315 319 319 320 321 318 318 316 315 315 317 318 320 321 319 317 318 317 316 315 314 313
305 305 298 291 293 294 305 296 305 312 314 315 312 309 307 307 308 308 310 311 312 315 315 313 313 313 315 315 315 316 319 316 315 315 316 314 314 313 318 317 319 319 318 317 317 316 316 316 314
306 303 308 302 301 297 300 307 312 313 312 312 311 308 307 307 309 310 311 311 311 312 311 310 311 312 314 315 315 316 317 317 315 316 317 315 317 315 317 318 317 317 316 316 317 315 315 315 313
309 309 300 302 292 290 296 299 300 307 310 309 307 307 308 310 309 309 310 311 312 311 310 314 315 313 313 313 314 313 314 314 314 314 313 314 315 315 315 315 316 316 317 317 317 316 316 314 312
306 303 305 304 301 293 291 295 308 307 309 307 307 307 308 309 308 309 309 310 311 313 311 313 312 311 311 311 312 311 312 311 312 312 312 313 316 316 316 316 314 315 316 317 316 314 313 313 312
310 307 306 297 296 299 297 297 310 309 310 310 308 308 310 310 309 309 309 311 310 310 310 309 309 309 310 311 311 312 312 311 315 315 315 316 315 315 315 316 314 315 313 315 314 312 312 310 310
Wind_Speed
12 14 9 10 8 4 1 14 17 15 14 13 13 10 18 9 9 10 10 11 21 17 13 13 13 13 14 14 14 14 13 12 12 12 13 12 13 14 15 16 16 15 16 16 16 15 15 15 14
12 17 10 7 11 1 7 8 13 15 13 12 11 13 10 11 9 16 13 14 20 16 13 13 13 13 14 14 13 13 13 12 13 12 12 13 15 15 15 15 15 15 15 15 15 14 14 14 14
14 13 10 6 5 7 8 14 13 12 6 3 9 14 12 9 13 13 14 17 17 14 14 12 14 14 15 14 13 13 13 12 12 13 14 15 15 15 15 14 14 15 15 14 14 14 14 14 14
8 8 9 12 14 10 14 13 9 11 8 15 20 8 10 15 17 13 16 17 17 18 15 14 14 14 13 14 13 13 12 14 14 14 15 15 15 14 14 14 14 14 14 14 14 13 13 13 13
11 8 13 16 8 12 10 10 4 5 5 18 13 7 15 13 23 21 18 16 15 17 15 14 14 14 13 13 13 13 15 14 13 14 14 14 13 13 13 13 14 13 12 12 12 11 11 11 11
10 12 14 5 25 9 5 9 6 10 4 18 12 16 15 17 21 19 18 17 22 18 17 15 15 15 14 15 14 15 14 13 13 13 13 13 12 12 12 12 12 10 10 10 9 8 9 9 9
14 14 12 15 14 11 6 2 6 3 26 10 13 24 15 17 18 18 17 17 19 21 17 16 15 15 17 16 15 16 15 13 12 12 11 11 12 11 11 11 9 7 6 4 3 5 7 11 11
13 15 25 8 8 5 7 3 2 17 8 24 11 14 13 17 18 19 19 18 21 21 19 17 15 15 14 13 17 16 14 12 10 9 10 10 11 12 12 13 7 6 5 4 3 6 7 10 12
16 13 12 19 2 7 9 7 8 7 11 12 9 21 19 15 21 19 17 16 22 19 20 19 17 15 16 14 13 13 15 13 11 9 10 7 5 9 12 8 8 8 7 7 7 8 10 9 14
14 8 10 10 11 10 4 1 12 4 7 9 18 20 23 23 20 19 18 16 19 22 22 20 17 18 17 13 12 10 10 7 6 5 6 5 2 3 5 4 8 8 8 9 10 7 11 14 9
15 11 16 5 9 9 12 9 3 10 10 4 14 28 24 18 15 17 17 16 17 21 3 20 15 15 18 13 9 7 6 4 3 5 4 4 4 4 5 2 4 2 2 7 9 9 7 8 8
10 4 7 10 8 6 10 9 8 6 2 11 16 28 11 13 14 17 17 18 17 23 21 17 15 10 10 10 8 7 6 4 4 5 5 5 5 5 6 5 5 5 4 7 8 6 6 7 8
10 13 4 3 6 3 10 8 8 12 8 13 8 27 20 18 31 18 14 13 10 23 21 17 12 13 6 7 6 9 10 7 4 8 8 5 5 5 5 5 6 4 6 9 7 7 6 8 9
6 12 8 4 2 6 4 15 15 2 10 13 14 19 23 29 25 23 36 33 33 31 25 21 19 15 12 10 13 9 8 7 8 7 6 5 4 4 4 6 6 6 7 6 7 6 7 9 10
8 10 13 12 5 3 4 17 11 12 8 9 11 15 4 13 17 26 24 21 27 22 22 15 11 12 10 10 9 7 6 8 6 5 6 11 7 8 6 4 7 5 5 6 5 6 8 8 9
10 13 15 11 7 7 4 11 13 9 10 12 13 20 28 24 19 16 28 26 12 16 9 1 6 6 8 3 8 8 4 5 5 5 4 6 6 5 4 4 4 7 6 6 6 6 8 8 8
14 11 16 10 6 1 7 10 10 8 7 10 8 22 24 22 23 18 14 9 13 12 8 8 10 9 11 9 4 6 9 6 4 4 4 5 4 5 5 4 5 5 5 6 6 6 7 8 8
14 8 7 1 12 8 9 15 11 6 7 7 10 19 22 20 20 19 19 16 15 13 11 10 7 5 3 2 5 4 4 2 2 2 2 4 2 0 3 4 4 6 5 5 6 6 5 7 7
13 10 9 9 8 8 9 13 9 8 5 5 8 18 20 20 17 17 14 13 13 12 11 9 8 6 6 5 4 3 3 3 1 4 8 2 1 3 3 4 6 5 5 6 5 5 7 4 5
10 11 12 12 15 12 15 19 17 8 13 11 17 17 18 18 19 17 15 12 11 11 10 10 10 9 7 5 3 2 2 3 4 4 5 2 2 1 4 2 1 3 4 5 3 4 6 5 5
12 12 12 14 16 17 20 17 19 19 27 31 28 24 20 18 16 16 15 13 13 11 8 9 9 8 6 4 2 2 3 5 3 4 4 3 4 4 2 4 1 2 3 4 3 4 6 5 6
8 12 14 16 18 16 19 15 12 20 24 21 8 17 16 17 15 17 15 15 15 11 11 9 8 5 4 7 7 8 4 5 4 6 4 2 3 6 6 5 2 1 2 5 4 3 5 2 5
12 14 14 22 21 20 19 4 3 18 16 15 15 17 17 15 15 16 14 13 10 10 9 7 6 6 5 4 3 2 5 4 4 5 6 5 6 6 8 4 2 3 2 4 4 5 4 5 3
8 17 20 21 19 13 0 5 11 12 17 15 13 14 13 11 12 13 10 8 7 4 2 3 3 2 4 5 7 5 7 8 7 7 7 5 4 3 4 3 3 1 3 5 4 5 4 5 4
15 16 10 13 9 11 12 5 10 14 16 16 11 10 10 10 10 8 7 7 6 5 6 7 7 7 7 7 5 6 6 6 9 8 4 6 5 3 5 4 2 2 5 4 5 4 4 5 2
16 12 9 14 13 16 13 6 6 11 13 17 15 11 11 10 8 6 4 2 3 5 2 4 4 5 6 7 6 5 6 5 6 4 3 5 5 6 4 5 3 5 5 5 4 3 3 4 3
7 8 15 12 16 11 1 9 8 7 8 13 13 11 11 10 8 8 8 8 6 4 5 6 5 5 6 7 6 7 5 6 6 7 5 7 5 6 5 5 4 6 6 4 4 3 4 3 3
8 14 6 10 9 12 14 9 8 1 13 13 12 11 11 10 12 10 6 3 3 4 5 4 9 10 10 10 8 7 8 6 7 6 6 6 6 6 8 8 7 5 4 4 2 2 3 3 4
12 11 10 6 7 10 10 7 15 18 17 8 12 16 12 8 7 5 5 5 6 7 9 9 10 11 9 8 9 8 8 9 10 6 9 9 7 7 7 8 9 6 4 2 2 4 5 5 4
8 10 5 4 8 8 12 3 12 13 11 7 12 13 8 4 4 4 4 4 7 14 14 13 9 9 9 9 9 11 12 6 6 8 7 7 6 7 6 7 7 5 3 3 2 3 4 6 6
Wind_Direction
275 248 235 252 258 67 265 299 43 40 65 40 69 76 93 71 7 100 136 109 106 108 128 123 122 118 112 110 109 107 105 105 104 104 103 101 93 85 85 84 81 77 73 65 58 51 45 39 33
299 300 276 258 268 56 314 218 53 71 90 103 117 126 122 101 103 121 132 106 111 129 116 124 123 118 117 115 113 112 113 110 108 106 100 95 94 91 86 80 78 77 70 64 57 48 41 35 27
268 272 282 235 358 228 179 201 86 101 130 105 102 120 145 112 123 128 108 113 119 123 117 130 128 123 123 121 118 113 112 113 104 100 102 100 93 88 84 80 78 73 68 62 54 44 33 26 21
279 279 233 261 240 238 51 86 104 130 118 72 53 96 87 111 142 131 143 145 136 133 128 126 122 121 121 121 119 118 116 102 104 106 102 98 95 91 86 81 74 68 62 53 43 33 25 15 10
245 271 274 268 265 59 83 87 113 71 115 114 129 156 97 105 112 140 154 141 143 115 128 128 122 121 125 125 120 112 105 109 110 109 107 103 98 95 89 85 79 69 59 53 40 25 13 1 350
263 238 261 85 270 110 50 108 293 126 139 139 127 138 111 123 133 148 149 156 129 132 132 136 129 128 127 116 116 114 111 109 109 110 110 110 105 100 97 87 78 70 62 51 37 13 355 340 326
254 267 252 252 244 92 64 70 174 159 23 70 107 55 304 145 145 151 156 161 131 133 134 136 136 123 116 113 111 109 110 111 114 119 125 131 133 126 112 98 87 78 79 66 29 345 337 320 313
245 267 277 230 102 122 89 234 2 95 57 292 122 163 231 156 159 159 164 160 146 140 145 150 139 138 133 124 114 113 115 120 127 140 154 162 155 145 146 141 134 155 173 194 235 278 285 290 308
255 265 340 292 326 110 129 262 326 106 140 235 149 152 201 170 169 167 167 166 152 151 147 143 147 153 131 131 124 122 133 145 157 173 188 185 201 183 175 130 172 192 207 221 249 265 279 305 356
248 241 215 319 35 340 13 268 190 203 216 190 143 167 188 169 173 174 172 180 159 141 153 142 148 153 137 128 154 151 157 173 203 178 180 199 97 314 336 132 192 229 255 224 261 332 357 10 357
241 270 220 73 31 346 326 309 196 313 301 184 100 300 139 164 182 185 181 184 165 152 81 136 153 141 140 142 166 159 159 139 157 86 21 60 343 17 11 63 12 266 162 26 17 4 7 3 347
277 340 1 2 15 313 271 322 345 276 329 167 196 129 174 11 213 208 191 191 174 146 154 122 119 93 123 148 175 158 135 158 89 115 57 33 12 27 2 17 324 3 15 33 11 341 348 347 321
258 285 102 43 271 295 355 297 295 319 358 166 163 148 145 127 296 226 203 210 156 129 123 124 99 88 53 75 72 50 53 51 14 78 55 41 22 26 347 348 322 341 29 21 349 330 343 332 335
229 277 302 249 59 264 302 311 312 347 354 341 331 174 141 172 177 356 59 41 26 0 69 62 64 59 57 50 51 66 38 24 29 50 63 44 31 28 359 328 345 31 26 1 324 343 353 340 343
310 277 253 224 188 42 4 280 279 36 11 324 308 301 168 91 100 106 45 65 55 11 11 29 75 81 70 74 72 75 59 34 16 34 17 18 31 11 359 349 343 26 2 337 331 354 341 334 326
241 251 266 207 130 130 225 304 80 41 353 330 334 60 64 64 75 89 113 114 188 172 159 286 40 93 115 105 123 113 113 48 46 46 35 33 21 358 343 336 322 12 353 341 346 347 341 329 330
216 242 241 146 128 42 288 292 128 103 24 324 338 69 67 65 72 69 67 99 133 109 114 72 52 35 51 51 78 72 60 52 35 29 359 328 295 359 25 338 342 4 344 351 347 344 331 332 328
345 267 353 104 83 36 326 303 301 60 56 350 45 68 71 74 70 78 85 100 100 94 96 88 81 87 112 84 61 63 68 69 116 167 227 259 263 42 29 311 335 11 347 329 337 348 343 313 310
318 337 329 319 51 3 308 289 275 254 119 43 74 82 82 73 74 85 90 99 101 96 102 110 83 32 35 26 22 19 16 334 248 231 230 175 346 360 342 337 26 338 338 319 29 341 311 313 309
304 308 22 332 359 333 306 286 270 147 89 49 79 79 69 75 77 82 91 92 98 100 101 81 57 46 36 35 32 337 298 280 290 311 301 282 296 220 255 84 273 333 340 307 13 343 307 314 333
340 10 8 328 319 298 282 294 307 103 58 50 19 63 58 58 65 72 74 77 82 80 84 70 52 38 26 1 266 260 294 331 328 325 334 16 241 264 197 198 14 353 317 321 4 317 319 323 326
341 6 324 305 301 292 297 285 93 82 77 83 91 54 61 57 62 66 57 50 51 43 46 45 48 48 29 19 20 8 16 321 313 311 282 348 299 278 261 129 81 296 315 303 291 308 304 340 312
317 321 305 309 291 280 280 12 131 114 93 99 75 67 63 50 52 52 49 50 47 41 39 37 32 24 18 6 349 315 283 242 283 309 317 318 278 273 105 129 143 246 254 285 302 293 323 302 342
329 347 308 288 273 261 112 255 61 29 93 82 73 65 65 67 68 67 62 60 49 25 42 312 319 319 290 274 256 291 335 338 333 313 299 294 332 69 118 199 230 285 283 270 283 299 315 317 327
353 316 320 319 348 323 336 9 70 87 89 102 102 86 96 97 82 77 66 46 32 10 0 5 9 360 345 342 320 319 308 311 291 293 350 330 315 333 170 217 284 249 252 263 271 300 297 289 303
320 338 319 327 320 302 346 344 95 110 102 97 105 117 108 89 91 97 114 116 259 281 341 5 307 303 303 322 327 310 328 329 327 348 326 302 322 300 259 246 244 258 267 254 283 290 267 262 316
343 329 319 290 277 296 73 81 91 85 110 110 107 93 89 92 94 98 82 51 18 329 33 20 334 292 284 305 17 348 322 304 294 295 301 288 285 285 295 316 324 303 286 303 278 293 293 282 305
264 339 328 335 330 307 317 103 57 87 136 103 106 100 109 85 59 52 40 53 318 318 297 339 349 12 11 352 348 331 312 304 290 276 275 276 295 334 326 315 309 309 315 280 323 294 297 283 296
334 330 340 351 315 319 334 45 39 37 94 61 97 89 91 78 46 27 349 2 322 333 350 18 12 349 0 332 321 303 314 1 307 346 340 345 334 337 324 326 314 300 289 314 308 299 275 268 281
339 319 324 310 314 318 306 334 28 51 67 123 100 104 94 64 25 9 325 355 325 13 16 16 16 337 325 310 303 327 347 246 336 350 332 322 314 321 342 346 337 328 5 351 327 314 360 340 329